Wind_Gust
24 29 23 19 21 22 21 21 20 19 18 18 18 18 18 18 18 18 18 18 18 18 19 18 17 18 18 17 16 16 14 13 12 13 14 14 13 13 13 13 14 14 16 17 17 16 16 15 16 16 17 16 16 16 17 18 18 18 17 18 17 16 17 18 18 17 17 19 19 18 17 18 18 16 19 16 10 11 14 11 17 18 15 16 16
26 26 24 24 21 21 21 21 21 19 19 18 18 17 17 18 18 18 18 18 18 18 18 17 18 19 19 17 16 15 14 13 12 12 13 13 13 12 12 12 13 14 15 16 15 15 16 15 15 16 16 16 16 16 16 17 17 17 18 17 16 16 16 16 16 16 16 17 19 19 17 17 16 16 17 18 17 17 17 18 18 16 16 15 16
27 24 24 25 22 21 21 21 20 19 19 18 18 17 17 18 18 18 18 18 18 17 17 17 18 19 18 17 16 15 14 14 13 12 12 12 12 12 12 12 12 13 14 14 14 15 16 15 14 14 15 15 15 16 16 18 17 17 18 18 17 15 14 14 14 14 16 17 18 20 20 19 16 16 17 17 19 19 21 19 18 18 18 17 16
28 25 24 24 22 22 22 22 20 21 20 19 17 18 17 17 18 18 18 18 17 18 17 18 18 19 18 17 16 15 14 14 13 13 12 11 13 13 12 11 12 12 13 13 13 14 16 14 14 15 15 15 15 17 17 18 17 16 17 16 16 14 12 10 10 11 12 17 20 18 14 17 17 17 17 17 18 18 17 17 17 17 17 15 17
27 26 24 24 24 21 21 22 22 22 21 20 19 18 19 19 19 19 18 18 18 18 19 19 19 18 18 17 16 15 15 14 14 13 12 12 12 12 12 12 12 12 11 12 14 14 15 14 13 13 13 14 14 15 16 17 17 17 16 15 14 12 9 8 7 8 11 14 18 10 17 18 17 17 16 17 17 15 15 16 16 14 14 17 17
27 26 24 23 23 23 20 22 21 22 21 20 19 20 19 20 20 20 20 19 18 19 19 19 18 17 17 16 16 15 15 14 14 13 12 12 11 10 11 11 11 11 10 11 13 12 13 12 12 12 13 13 14 14 14 16 16 17 15 15 14 9 5 5 6 6 7 12 11 12 13 17 16 17 16 15 14 12 13 13 15 14 14 16 16
26 26 25 23 22 21 19 20 20 21 21 20 20 20 20 20 20 20 19 19 19 19 19 18 17 17 17 16 16 15 14 14 13 12 12 11 11 10 10 10 10 10 10 9 11 11 12 11 10 11 13 14 14 14 14 15 16 16 15 14 12 6 4 3 6 6 8 8 12 14 10 17 16 16 15 14 13 12 12 14 13 13 13 15 16
25 25 24 23 20 22 19 19 19 19 20 21 20 20 20 20 20 19 20 19 18 18 18 18 17 16 16 16 15 15 15 13 13 12 11 11 11 11 12 7 10 9 8 9 9 9 10 10 9 11 13 13 14 14 14 14 14 13 13 12 10 6 5 6 8 9 8 14 14 13 15 17 16 17 13 15 14 11 10 13 12 12 10 14 16
27 25 24 23 22 22 20 19 19 19 19 20 19 19 20 20 20 20 20 19 19 18 18 18 18 18 17 16 16 15 14 13 12 12 10 10 11 16 15 13 10 9 8 8 10 7 7 9 9 12 14 14 14 14 13 12 13 12 12 10 8 5 8 11 11 11 11 14 13 16 20 19 17 16 14 15 13 9 7 10 14 15 17 17 15
23 24 24 22 24 20 19 19 18 18 17 18 18 20 20 20 20 20 19 19 18 17 17 17 17 17 16 16 16 15 14 14 13 13 12 12 12 13 13 10 10 9 8 9 9 9 6 8 11 13 15 15 15 14 13 13 11 11 11 9 4 8 11 10 11 12 12 11 21 21 24 20 19 18 13 10 11 12 15 18 16 12 12 13 14
26 24 23 24 24 19 19 18 18 19 18 17 17 17 19 18 18 18 18 19 18 17 17 17 17 16 16 15 14 14 13 14 13 13 13 12 12 11 11 10 10 9 9 9 10 9 11 17 18 15 15 15 15 14 12 11 10 9 9 7 6 9 9 11 11 13 15 11 18 17 21 24 17 13 13 12 12 13 15 14 11 12 13 13 13
24 23 22 22 22 19 18 17 18 18 19 18 17 17 16 17 17 17 17 17 18 18 17 16 15 16 16 15 14 13 13 13 12 13 13 13 13 12 11 11 10 10 9 9 11 12 16 18 19 17 14 15 14 14 13 11 9 9 8 5 6 6 11 12 14 15 9 16 14 16 19 22 19 17 14 12 11 11 13 11 10 13 13 13 13
23 24 23 23 20 17 17 17 17 18 18 17 16 16 16 15 16 16 16 15 16 16 16 16 15 13 14 14 14 13 12 12 12 12 13 13 12 12 11 10 10 9 9 9 11 14 17 18 17 15 15 14 14 13 12 11 9 8 7 5 6 9 11 13 15 15 12 17 17 21 20 17 16 16 14 11 12 11 11 11 11 12 13 13 13
23 25 24 23 20 19 16 16 15 17 16 16 14 13 14 15 16 16 13 14 14 15 15 14 14 14 13 13 13 13 12 11 11 12 13 12 12 11 11 10 10 10 10 10 12 13 15 16 15 15 14 14 13 12 11 9 8 7 5 6 7 9 10 11 14 21 11 10 15 23 20 15 17 14 15 11 11 11 10 11 11 13 14 13 12
24 24 23 22 22 20 19 15 15 15 14 15 14 14 11 11 12 13 13 14 15 14 14 14 13 13 13 13 13 13 12 11 11 11 12 11 11 11 10 10 9 10 10 10 12 13 14 15 14 13 12 12 10 9 8 8 7 6 5 7 8 8 9 14 18 12 11 11 17 21 21 17 14 14 13 11 11 11 11 9 11 11 12 13 12
24 25 23 22 22 21 20 18 14 14 13 15 14 13 12 12 13 12 12 13 13 13 12 13 13 12 12 12 12 12 12 11 10 11 10 11 11 11 11 10 9 10 10 11 12 13 13 14 13 13 12 11 9 7 6 5 4 3 4 8 9 8 10 10 13 12 10 6 16 20 19 19 16 15 11 12 12 11 10 11 10 10 11 11 11
24 23 23 24 22 21 21 20 16 16 13 13 13 13 12 12 12 12 12 13 13 13 12 12 11 12 12 12 12 11 11 11 11 11 10 10 10 10 10 10 10 10 10 11 12 12 12 14 14 13 12 10 8 7 5 4 4 3 6 6 10 10 11 10 12 14 4 9 19 21 19 18 16 13 11 11 11 11 11 11 11 11 10 11 11
24 25 24 24 22 20 19 18 20 17 17 15 12 12 12 12 11 12 12 12 13 12 11 10 9 12 12 11 11 10 10 10 10 9 9 8 7 9 9 10 10 10 10 12 11 12 12 13 13 12 11 10 9 7 6 4 3 3 6 8 10 11 12 8 10 14 13 12 23 20 16 14 17 15 12 11 11 11 10 10 10 10 11 10 11
22 22 24 23 21 20 19 18 16 17 16 14 14 14 13 12 11 12 12 12 12 13 13 10 10 11 12 11 11 9 8 9 9 8 7 7 7 8 7 8 10 10 10 11 11 11 11 12 12 11 11 10 8 7 6 5 4 3 6 9 10 11 12 9 12 11 11 16 15 19 17 16 15 16 12 11 12 11 10 10 10 9 10 10 10
18 22 23 21 21 19 18 19 18 17 14 14 14 14 13 13 13 12 12 12 12 12 12 11 12 10 15 14 11 8 9 9 8 10 8 6 8 8 8 8 9 10 10 10 11 11 11 12 11 11 11 10 8 7 6 6 5 5 5 7 11 12 11 10 10 8 15 20 17 15 16 16 17 15 13 11 11 10 9 9 10 9 10 10 10
18 17 18 23 21 20 19 18 19 16 14 14 13 14 16 16 14 14 14 12 11 12 12 13 11 10 15 12 8 5 8 8 8 10 9 9 5 4 9 9 9 10 10 10 11 11 11 12 11 12 10 10 9 7 7 8 8 7 8 7 9 10 10 10 10 7 19 20 18 18 16 17 17 15 14 12 12 11 10 10 9 9 9 9 10
18 16 20 21 21 18 18 18 19 20 15 10 10 12 15 14 14 13 13 13 12 11 12 10 12 11 12 13 9 7 6 5 8 8 9 10 8 6 6 8 8 9 9 10 10 10 11 12 12 12 12 10 9 11 10 10 10 10 9 9 10 10 10 8 7 7 18 17 17 18 18 17 16 15 14 13 11 10 10 10 9 9 9 8 9
19 19 22 23 20 18 17 18 18 19 15 15 15 13 16 12 11 13 13 9 11 12 12 12 10 11 13 12 10 7 7 6 6 8 9 5 9 7 7 8 8 10 10 9 10 10 11 11 12 11 11 11 13 12 11 11 11 12 10 11 10 12 10 5 3 12 17 17 16 18 16 16 16 14 15 13 12 11 9 10 10 10 8 8 7
16 18 19 24 22 19 18 16 22 17 14 13 12 11 14 11 8 6 11 11 12 11 11 8 10 9 11 12 10 11 9 5 7 9 9 9 9 6 8 10 12 12 12 10 11 12 12 12 12 11 8 9 13 16 16 13 12 10 10 10 11 12 6 5 7 8 18 19 19 17 16 16 16 16 14 13 12 11 9 8 9 9 8 8 8
15 15 17 21 22 20 18 20 20 19 12 11 12 12 14 13 11 9 9 10 11 13 12 15 9 6 12 9 7 8 11 10 8 8 9 9 10 12 11 12 12 13 11 12 12 13 13 12 13 12 12 14 16 14 14 11 12 13 14 12 12 7 5 5 5 9 18 14 18 17 17 15 15 14 15 13 12 11 9 9 8 9 8 7 8
15 15 15 17 22 23 18 18 20 19 18 13 11 12 13 13 12 10 8 7 11 12 10 8 8 7 8 10 12 10 7 7 8 7 8 8 8 10 12 12 13 11 14 11 12 13 13 13 13 15 15 15 16 16 5 7 14 11 10 11 6 7 5 6 8 5 16 14 17 19 16 15 14 14 14 13 13 12 10 10 8 8 7 7 7
14 14 14 14 19 23 25 19 17 16 17 18 15 14 11 10 12 10 8 8 8 14 11 13 12 13 11 10 10 10 8 9 8 10 11 10 8 4 5 7 7 8 5 11 10 11 12 12 12 11 13 16 16 7 7 10 4 9 9 9 9 8 6 7 6 7 16 14 14 18 17 16 13 13 14 13 13 12 11 10 10 9 8 7 7
15 14 15 14 12 22 25 25 17 13 10 16 13 13 11 13 13 12 8 6 8 9 14 12 10 11 10 9 9 10 12 9 11 10 11 7 9 6 5 6 7 5 6 8 11 7 10 8 7 13 12 9 9 8 8 6 5 5 6 5 6 7 9 9 8 7 15 13 16 17 17 16 14 12 15 14 12 12 13 11 11 10 10 8 7
14 12 13 15 14 15 22 24 24 21 13 12 13 13 12 11 10 10 12 9 10 6 8 8 10 11 10 10 10 12 12 11 9 6 7 9 8 7 8 5 6 6 7 7 6 9 6 6 9 9 8 9 9 7 10 11 7 6 8 8 7 6 6 6 6 7 14 13 13 16 18 17 14 12 13 15 13 12 13 12 11 11 11 10 8
14 14 12 10 11 17 17 22 22 24 21 15 12 13 15 15 13 8 8 10 10 9 10 9 8 7 11 13 11 7 8 11 11 8 7 8 10 11 7 6 5 6 5 5 8 7 7 5 10 16 11 14 10 10 5 9 15 10 9 9 8 7 7 9 7 7 13 15 13 16 17 17 14 12 9 12 14 14 14 13 11 12 12 12 11
14 15 13 12 9 13 13 15 17 20 21 19 14 15 13 14 14 13 14 11 7 6 9 10 10 10 10 10 11 13 11 8 7 11 10 10 8 8 7 8 9 8 5 7 10 11 8 6 11 9 10 10 14 11 9 8 13 15 13 13 12 7 6 9 9 11 11 15 16 14 17 17 16 13 10 8 10 15 14 13 12 11 12 12 11
17 15 12 10 10 9 15 17 15 8 4 20 15 19 18 21 16 11 11 12 12 8 10 8 10 10 8 9 10 11 8 8 6 6 8 9 9 9 5 7 8 7 7 8 9 13 16 10 10 14 9 8 12 12 13 5 9 15 15 15 14 10 9 6 9 12 12 13 16 14 14 16 17 16 14 11 8 10 15 13 13 12 12 12 12
16 13 15 13 9 13 15 13 13 7 7 9 10 9 9 23 24 22 13 15 18 15 14 9 9 11 9 9 8 8 10 10 7 7 7 9 9 10 9 8 5 6 9 12 13 16 14 15 8 10 11 9 7 5 12 12 9 13 12 10 12 12 9 8 7 5 8 12 19 17 16 16 15 16 17 14 12 9 13 15 13 13 13 12 12
19 16 15 14 12 12 12 12 9 11 8 10 4 5 8 8 13 18 15 12 13 17 12 14 10 9 9 8 9 12 10 9 10 10 7 5 7 9 11 7 6 6 9 11 10 13 15 14 6 10 13 8 8 7 5 7 11 11 11 14 6 9 8 13 9 5 3 7 18 18 17 17 15 13 15 15 14 11 10 12 15 14 14 14 12
17 17 17 16 13 12 12 12 9 10 9 9 7 9 9 10 12 13 10 7 14 18 17 13 10 7 7 11 10 8 8 10 11 9 9 7 7 10 8 12 9 8 5 9 13 11 9 11 4 7 12 8 9 8 5 5 11 18 14 6 10 10 8 6 9 11 9 3 1 16 18 16 16 15 14 13 12 13 12 10 11 14 15 14 13
17 17 18 16 16 14 12 12 10 10 10 9 10 9 8 9 9 8 8 4 8 11 14 15 12 6 6 8 5 7 7 8 9 12 7 9 8 10 7 8 9 6 6 7 9 9 8 8 6 8 10 10 11 12 5 6 9 17 14 9 9 8 9 12 5 8 12 10 11 5 17 18 17 16 15 14 14 14 15 13 11 13 14 14 14
18 18 18 17 17 15 14 13 12 11 9 10 9 8 6 9 9 6 6 4 5 9 11 12 13 13 7 5 5 7 7 5 7 6 7 7 9 8 9 7 8 8 7 6 7 8 10 10 8 6 5 7 11 9 11 4 7 11 10 8 10 8 9 8 10 12 13 5 7 10 6 14 19 15 15 17 15 15 17 16 14 13 14 11 12
18 17 18 17 18 17 15 13 12 11 10 8 9 7 8 8 7 9 6 7 4 6 7 9 12 12 10 5 5 5 4 3 4 11 8 8 8 9 9 8 9 10 6 5 7 7 7 8 7 5 6 7 7 9 13 15 14 12 10 12 12 13 9 10 10 10 12 14 7 6 7 7 11 18 19 16 16 15 17 18 18 15 14 12 11
17 19 18 17 18 16 15 13 12 12 10 9 9 9 6 9 7 6 6 5 6 7 5 9 10 8 6 7 6 8 4 4 3 3 9 7 17 16 13 9 7 7 5 5 8 7 5 8 8 6 4 4 5 8 6 8 12 13 13 12 15 17 19 13 14 12 11 12 12 13 12 7 4 6 15 14 15 16 15 16 16 14 16 15 13
17 18 17 18 18 17 15 14 12 12 11 10 10 9 7 7 7 6 6 8 11 9 4 7 5 8 6 7 5 5 7 7 7 9 8 8 8 12 13 11 8 7 7 7 3 5 7 9 10 9 6 5 4 5 5 7 6 8 12 10 11 9 11 10 14 12 10 11 12 10 10 8 8 8 7 9 10 14 16 15 14 17 17 18 17
18 19 19 18 19 20 17 16 13 12 12 12 10 10 8 9 4 7 8 6 11 7 9 10 11 10 11 9 8 8 7 8 8 5 3 4 4 6 5 8 9 7 7 6 6 6 5 5 5 5 7 5 4 5 7 8 5 5 6 6 6 7 7 8 12 15 10 12 11 11 9 8 7 4 7 9 8 7 17 16 16 16 15 15 20
20 20 18 20 17 18 17 16 15 12 10 9 8 6 7 10 6 8 8 9 11 11 11 10 8 8 5 5 5 7 5 5 7 6 5 3 6 5 7 7 8 8 4 4 7 4 3 3 4 6 8 7 6 6 7 10 4 5 5 7 6 4 5 5 11 15 17 11 7 9 9 11 9 6 2 4 6 6 11 17 18 15 16 14 17
19 20 18 18 17 18 16 16 14 12 11 9 9 7 6 7 5 7 6 13 14 12 12 9 8 10 5 6 6 5 7 8 6 5 4 11 7 7 6 7 7 8 8 6 7 4 5 5 5 6 6 5 4 4 6 4 7 5 6 6 5 7 5 5 5 10 12 12 8 4 8 13 16 16 15 8 5 7 11 10 14 15 14 14 14
19 19 18 19 18 17 17 16 15 12 12 10 8 8 8 7 8 10 11 10 12 10 8 7 7 7 9 8 9 6 7 7 7 8 14 11 9 8 8 9 5 4 6 12 9 8 4 5 5 4 6 5 5 6 6 7 6 7 7 8 5 4 7 6 4 3 5 5 4 5 6 6 7 11 14 15 15 12 12 7 8 7 8 8 12
19 20 18 19 18 17 18 16 15 13 13 10 11 11 10 9 11 12 12 12 9 7 7 7 7 8 7 7 8 6 8 9 8 8 10 12 13 9 5 4 10 6 9 6 6 7 12 10 10 6 5 5 6 5 4 5 7 3 5 7 9 8 6 4 3 4 6 5 3 4 5 3 6 6 8 11 16 15 15 16 13 11 8 6 4
20 17 17 17 17 18 19 16 15 14 15 13 13 13 11 10 10 10 10 9 9 8 7 7 6 5 11 6 7 8 11 7 10 13 13 10 7 6 9 8 9 10 11 9 10 7 10 11 8 11 10 10 8 7 7 7 8 8 3 4 6 6 4 6 4 8 3 3 4 5 6 6 6 6 5 8 10 8 7 7 7 9 10 9 8
18 17 17 16 17 17 17 17 15 15 16 14 14 13 11 11 10 10 9 9 10 8 8 6 9 8 6 8 8 5 8 9 8 9 9 10 10 8 7 7 7 5 5 8 8 10 10 8 14 12 8 10 11 8 6 7 7 6 7 8 11 8 7 6 6 5 7 6 6 5 7 9 8 5 5 5 6 8 7 6 6 7 8 7 6
16 19 17 16 17 17 18 17 15 15 15 15 15 12 13 11 9 8 9 10 9 11 9 7 8 7 7 7 7 5 6 8 6 8 8 11 8 8 6 7 7 6 8 9 9 10 8 9 11 9 8 11 10 7 7 9 9 6 9 8 9 7 7 8 7 7 3 4 5 4 4 5 3 5 5 5 4 4 5 6 5 5 6 5 6
19 19 20 18 16 17 18 16 16 16 16 16 15 14 12 12 10 8 9 9 13 12 11 10 8 8 6 5 5 8 7 6 9 7 9 10 8 7 7 7 9 11 11 11 8 10 8 9 8 9 9 10 9 9 10 10 7 7 6 9 12 8 10 10 10 11 7 4 4 3 4 3 4 4 2 3 5 4 5 6 7 8 4 3 4
16 18 19 19 18 17 19 18 17 17 18 17 15 15 13 13 11 9 9 10 12 11 10 10 9 7 6 5 6 6 8 7 5 7 6 9 7 7 7 7 6 7 8 9 8 8 7 7 6 6 9 6 7 8 9 9 8 7 7 5 5 8 10 8 8 12 7 4 5 6 6 5 5 5 5 5 4 5 6 4 6 10 8 4 5
23 19 19 22 20 19 20 19 19 18 19 18 17 15 14 13 12 10 10 11 12 11 11 11 10 8 8 7 7 6 6 8 6 5 6 7 6 7 5 6 5 5 7 8 7 9 6 6 6 7 7 7 7 6 6 6 6 7 8 10 10 10 8 7 6 8 6 3 6 8 8 12 10 4 8 9 9 8 7 7 9 10 8 7 7
Wind_Speed
14 17 13 15 15 17 17 16 15 15 15 15 15 14 14 14 14 15 15 15 15 15 15 15 14 15 14 13 13 12 11 10 10 11 11 11 11 10 10 10 11 12 13 14 13 13 12 12 13 13 13 13 12 12 14 14 15 14 14 15 14 13 14 14 13 13 14 16 15 14 14 13 13 12 14 11 6 10 12 10 14 10 7 10 12
16 15 13 13 16 17 17 17 16 15 15 15 15 14 14 14 14 15 15 15 15 14 14 14 15 15 14 13 13 12 11 10 10 10 11 10 10 10 10 10 10 11 12 13 12 12 12 12 12 13 12 12 12 12 12 13 14 14 14 13 13 13 13 13 13 13 13 14 15 15 13 13 12 13 13 13 13 14 14 14 13 8 6 11 13
16 15 13 14 17 16 16 17 16 15 15 15 15 14 14 15 15 15 15 15 15 14 14 14 15 15 14 13 13 12 12 11 10 10 10 10 10 10 9 10 10 11 11 11 11 13 12 11 11 12 12 12 12 12 13 14 13 14 15 14 13 12 11 11 11 11 13 13 14 16 16 15 13 12 13 13 14 14 16 14 14 14 8 13 12
17 13 13 15 18 16 16 16 15 15 15 14 14 14 14 14 15 15 15 15 14 15 14 15 15 15 14 13 13 12 12 11 11 10 10 9 10 10 9 9 9 10 11 10 11 11 12 11 11 11 12 12 12 13 13 14 13 13 14 13 12 10 9 8 8 9 10 14 15 13 7 8 10 13 13 13 14 14 14 14 13 13 13 12 13
17 14 13 13 14 16 16 17 17 17 16 15 14 15 15 15 15 15 14 15 14 14 15 16 15 15 14 12 12 12 12 11 11 10 9 10 10 9 9 9 10 9 9 10 11 11 12 11 10 10 10 11 11 11 12 13 13 13 13 12 10 6 7 7 5 6 8 11 14 7 8 9 8 12 12 13 12 12 12 12 11 11 11 13 13
16 14 12 12 12 14 16 18 17 18 17 16 16 16 16 16 16 16 16 15 15 15 16 15 15 14 14 13 12 12 12 11 11 10 9 10 9 8 9 8 8 8 7 9 10 10 10 9 9 9 10 10 10 10 11 12 12 13 12 11 7 6 3 4 5 4 5 9 9 4 6 9 8 8 12 11 10 9 9 11 12 10 10 13 13
17 13 12 11 11 13 16 16 17 17 17 16 16 16 16 16 16 17 16 16 15 15 15 14 14 13 13 13 12 11 11 11 10 10 9 9 8 8 7 8 7 7 7 7 9 8 9 9 8 8 10 10 10 10 10 11 12 13 12 10 6 2 2 2 2 4 4 5 4 3 3 9 8 7 11 10 9 9 9 10 10 10 10 12 12
14 12 12 11 10 14 16 15 16 16 16 17 17 17 16 16 16 16 16 15 15 15 15 14 14 13 13 13 12 12 11 9 10 9 9 8 9 8 9 3 7 7 6 7 7 7 8 8 7 9 10 10 10 10 11 11 11 11 10 9 4 1 4 3 5 4 5 5 3 5 6 9 8 8 10 11 10 8 7 10 9 8 8 11 12
14 14 13 11 11 17 15 15 15 15 16 16 16 15 16 16 16 15 16 15 15 14 14 14 14 14 14 13 13 12 11 10 10 9 7 8 9 11 10 4 6 7 6 6 7 5 5 7 7 9 11 10 11 10 10 9 10 10 8 6 1 4 6 7 6 7 6 4 5 4 12 10 9 8 10 11 8 5 5 8 10 11 13 13 11
14 13 13 10 12 15 15 15 14 15 14 15 15 16 16 17 16 16 16 15 15 14 14 14 14 14 13 13 13 12 11 11 11 10 9 9 10 10 10 8 8 7 7 7 7 6 5 6 9 10 11 11 11 11 10 10 8 9 7 4 2 6 7 7 8 8 4 5 10 13 12 14 10 8 8 7 8 9 12 14 11 8 8 10 11
13 13 12 12 14 15 15 14 15 15 14 14 14 14 15 15 15 15 15 15 15 14 13 14 14 13 13 12 12 11 10 11 10 10 10 10 10 9 9 8 7 7 7 7 7 7 9 14 14 12 11 12 12 11 10 8 8 6 5 2 4 6 7 8 9 5 6 4 11 9 14 18 8 6 9 9 9 10 11 11 9 9 9 10 10
14 12 12 11 15 14 15 14 15 15 15 14 13 13 13 13 13 14 14 14 14 14 14 13 13 13 12 12 11 11 11 10 10 10 10 10 10 9 9 8 8 8 7 7 8 10 13 14 15 12 11 11 11 11 10 8 7 6 4 3 4 4 8 9 6 4 5 9 9 10 12 12 10 9 11 9 7 8 10 9 7 10 9 9 9
14 13 12 12 11 13 13 14 14 14 14 14 13 13 12 12 13 13 12 12 13 13 13 12 12 11 11 12 11 11 10 9 9 10 10 10 9 9 8 8 8 7 7 7 9 11 13 14 13 12 11 10 10 9 9 8 6 6 4 4 4 6 8 10 7 6 5 6 10 10 12 9 8 13 11 8 8 7 9 8 9 9 9 9 9
14 13 12 11 10 14 13 13 13 14 13 13 12 10 11 12 12 12 10 11 12 12 12 12 11 11 10 11 11 11 10 9 9 9 10 10 9 9 8 8 8 8 8 8 10 11 12 13 12 12 11 10 9 9 8 7 6 4 3 4 5 6 7 7 7 9 5 6 9 13 10 8 8 11 12 8 8 8 7 8 8 10 9 8 9
15 15 13 11 11 10 14 12 12 12 12 12 12 10 9 9 10 9 10 11 12 11 12 11 10 11 11 11 10 10 9 9 9 8 9 9 9 8 8 7 7 7 7 8 10 10 11 12 11 10 10 9 8 6 5 5 3 2 3 5 6 6 6 6 6 6 5 5 10 11 10 8 11 12 10 8 7 8 8 7 9 8 8 9 9
16 15 13 11 11 10 10 12 11 11 11 13 12 11 10 10 10 10 10 11 10 10 10 11 10 10 10 10 10 9 9 9 8 9 8 9 9 8 8 7 7 7 8 8 10 10 11 11 11 11 9 9 7 5 4 3 2 1 3 6 7 6 7 5 5 6 5 3 10 11 9 8 13 12 9 9 9 8 8 8 8 8 7 8 8
14 14 14 13 12 10 9 9 10 13 11 11 10 11 10 10 10 10 11 11 11 10 10 9 9 10 10 10 9 8 8 8 8 8 8 8 8 8 8 7 7 7 8 8 9 10 10 11 11 10 9 8 6 5 4 2 1 2 5 5 8 8 8 5 5 7 1 2 10 9 7 8 11 11 9 8 8 8 8 8 8 8 7 8 8
14 14 14 13 12 10 9 9 10 9 10 10 10 10 10 10 9 10 10 10 10 10 9 8 8 10 10 8 8 7 6 5 7 7 7 6 6 7 7 7 7 7 8 9 9 9 10 10 10 10 9 7 6 5 4 2 1 2 4 6 8 9 8 5 4 5 1 9 11 9 7 10 14 12 9 8 8 8 7 8 7 7 8 8 8
13 13 13 14 12 11 10 9 9 8 9 6 6 8 11 10 10 10 10 10 10 11 10 8 8 9 10 7 7 6 5 6 6 5 5 6 6 7 6 6 7 7 8 9 9 9 9 10 9 8 8 7 6 5 4 3 3 2 4 7 8 8 9 5 3 5 3 8 7 7 7 13 13 13 10 8 9 8 7 7 7 7 7 8 7
9 13 11 11 11 11 10 9 8 9 7 7 7 8 10 11 10 10 10 10 10 10 10 9 9 9 12 6 5 4 5 4 6 6 4 5 6 5 6 6 7 8 8 8 9 9 9 9 9 8 8 7 7 5 4 4 3 4 3 6 8 8 5 4 5 3 8 8 9 7 11 14 14 12 10 8 8 7 7 7 7 7 7 7 7
6 10 10 9 11 11 12 9 9 9 8 7 7 7 9 12 10 12 12 10 9 9 10 10 9 9 10 2 4 2 2 3 3 4 6 4 4 4 7 7 7 7 8 8 9 9 9 9 9 10 9 8 7 6 6 6 6 5 6 5 7 4 5 5 5 3 10 8 9 9 14 14 14 12 11 9 9 8 7 7 7 7 6 7 7
5 7 10 11 9 9 10 10 9 10 6 4 3 6 7 8 8 8 7 8 8 8 7 5 7 7 9 4 3 1 1 2 3 4 3 3 4 4 5 7 6 7 7 8 8 8 8 9 9 9 9 8 7 4 5 7 8 8 7 7 4 4 5 5 4 3 9 8 7 10 15 14 13 12 11 9 8 7 7 7 6 7 6 6 7
9 6 8 11 9 8 9 9 9 9 8 6 5 5 7 4 6 6 5 6 5 6 5 3 4 6 4 6 4 3 3 2 2 4 5 3 5 5 6 7 7 8 8 7 8 8 8 9 9 8 7 8 5 4 5 5 5 8 7 5 4 4 6 3 3 2 8 8 7 14 14 14 13 11 12 10 8 8 6 7 7 7 6 6 5
9 8 8 9 11 8 9 9 12 9 7 5 5 4 4 3 3 2 5 4 3 3 5 1 2 3 6 4 2 3 4 2 4 6 6 3 5 5 7 9 10 10 9 7 9 8 9 9 8 7 5 4 4 5 6 5 5 4 4 4 5 6 3 2 3 3 6 10 9 14 13 13 14 13 11 10 9 8 6 6 6 6 6 6 6
6 7 9 10 10 10 9 12 11 8 6 5 6 6 6 5 3 3 3 3 4 6 5 2 1 1 3 3 4 4 4 3 2 2 2 3 3 4 5 5 3 4 7 4 5 5 5 5 4 4 4 5 6 7 7 4 5 5 5 6 6 4 3 2 3 3 6 7 9 13 13 12 12 12 12 10 9 8 6 6 5 6 5 5 5
6 7 5 10 12 11 10 10 10 8 6 4 5 6 6 5 5 4 3 2 5 6 1 2 4 2 3 4 5 4 1 0 1 1 2 3 4 5 4 3 2 2 6 4 5 4 5 5 5 5 5 6 7 8 3 2 7 7 6 7 5 4 2 3 5 4 6 7 9 15 13 12 12 11 11 10 10 9 7 7 5 5 5 5 5
5 7 7 6 11 13 12 11 9 9 9 6 4 5 4 4 4 3 3 4 4 7 4 4 4 5 5 5 5 4 3 2 2 3 2 2 2 0 1 2 2 1 1 2 3 5 5 4 4 6 6 8 9 4 1 5 2 3 3 4 4 4 4 4 2 4 7 6 8 15 13 12 11 11 11 10 10 9 8 7 7 6 5 5 5
6 7 6 6 5 14 14 11 8 7 6 9 7 6 6 6 6 4 3 3 2 5 7 6 4 4 4 3 4 3 3 3 2 2 2 1 1 0 1 2 1 1 2 2 2 2 5 4 4 5 6 4 3 2 2 3 3 2 3 3 3 4 5 4 4 3 7 7 7 12 13 13 11 10 12 11 9 9 9 8 8 7 7 5 4
8 6 6 7 7 6 15 10 9 7 6 7 6 5 5 6 5 4 5 3 4 1 4 4 5 4 3 2 2 2 2 1 1 2 2 3 1 2 1 2 2 3 1 1 1 3 3 2 2 4 3 4 4 3 3 2 3 1 2 4 3 2 4 3 2 4 7 7 6 9 14 13 11 10 11 12 11 9 10 8 8 8 8 7 6
7 6 6 4 6 10 12 14 13 8 6 6 4 5 4 3 3 2 3 6 5 5 6 4 2 4 4 4 4 2 2 3 4 3 4 3 3 2 2 1 1 0 2 3 1 3 4 1 4 7 6 8 4 3 3 3 4 4 4 2 4 3 2 5 4 3 7 7 6 8 14 13 12 10 7 10 11 11 11 9 8 9 9 8 7
7 8 5 3 4 7 8 9 11 13 9 7 6 6 6 6 3 1 2 3 1 1 4 4 4 4 4 3 2 2 4 4 3 4 3 3 2 1 1 1 2 0 2 3 6 5 5 3 2 3 4 5 7 5 5 3 3 5 5 4 4 4 3 4 4 4 6 8 7 7 9 14 13 11 8 7 9 12 11 10 9 8 9 8 8
7 6 4 4 3 6 9 10 9 4 1 12 8 8 7 7 8 5 5 4 4 2 2 2 2 2 3 4 6 6 5 2 3 1 3 4 4 4 1 1 2 2 3 1 3 5 8 6 1 5 4 1 6 4 6 2 2 4 3 6 5 4 5 4 4 5 5 7 8 7 7 8 13 13 11 9 6 8 12 11 10 9 9 9 9
5 6 7 5 4 9 9 8 7 3 4 5 4 5 6 9 5 5 5 7 3 1 0 0 3 3 2 4 4 5 3 3 4 4 2 4 5 4 3 2 1 3 5 5 5 5 5 8 4 4 4 4 4 3 2 5 5 5 5 1 5 4 4 3 3 3 5 7 8 9 7 8 8 12 13 11 10 8 11 12 11 10 10 9 9
7 7 7 6 6 5 6 6 5 6 5 5 1 3 3 4 8 7 4 6 6 2 2 2 4 1 0 3 4 5 3 2 1 1 2 2 3 3 1 2 2 2 4 3 3 5 6 6 1 2 7 4 3 4 3 3 3 5 5 5 2 3 3 4 5 3 2 5 9 8 8 7 7 6 7 12 11 9 9 10 12 11 11 11 9
7 8 8 8 7 6 5 5 5 5 5 5 4 5 5 5 6 6 5 4 8 9 7 4 3 2 1 1 2 2 5 5 6 2 4 2 1 5 2 2 3 3 3 4 3 1 2 5 1 2 4 5 3 4 1 1 3 5 7 3 2 4 3 2 5 5 4 2 1 9 8 8 6 7 6 6 9 11 10 8 9 12 11 11 10
9 9 9 8 8 6 6 6 6 5 6 5 6 5 5 5 4 4 3 2 5 6 8 7 4 2 1 2 2 3 4 1 2 6 4 3 2 4 3 2 1 2 2 4 4 4 4 5 2 3 4 5 5 2 1 2 2 4 6 5 5 6 3 6 2 2 4 4 3 2 9 7 8 7 7 6 6 8 12 10 9 11 12 11 11
9 9 9 9 9 8 7 7 6 6 5 6 6 4 4 5 4 2 3 2 3 5 5 7 7 5 3 1 3 3 1 2 1 2 3 4 4 3 3 3 3 2 4 1 3 4 6 5 4 2 2 2 6 3 2 2 0 2 4 5 6 5 5 6 6 5 6 2 4 5 4 9 10 10 8 7 7 7 11 12 11 11 12 9 10
10 9 10 9 9 8 7 6 6 6 4 5 4 3 4 4 3 3 3 3 2 3 2 5 6 6 4 1 3 3 0 1 1 7 1 4 3 4 3 2 4 5 4 2 1 1 3 5 3 1 1 2 2 3 5 5 6 6 5 6 6 7 6 6 6 6 6 7 4 3 4 4 8 10 8 8 8 8 8 12 14 12 11 10 9
8 10 9 9 8 8 7 7 6 6 5 4 5 5 3 6 3 4 2 2 4 3 3 5 5 4 4 3 2 5 1 2 0 1 5 4 8 6 7 5 3 4 1 1 2 2 2 2 4 2 1 0 0 3 3 1 4 1 6 6 6 8 10 7 7 7 6 6 6 7 4 4 2 3 9 8 8 8 8 8 8 7 8 12 10
8 9 9 9 9 8 7 6 6 6 5 4 5 4 3 4 3 2 2 4 5 3 1 3 3 4 3 4 2 1 4 4 4 4 4 5 2 6 5 6 4 3 2 1 0 0 0 2 4 4 1 0 0 2 2 2 2 2 1 3 5 4 6 6 8 7 5 6 6 6 6 3 3 4 4 4 6 8 8 8 7 8 7 10 13
9 9 9 9 9 9 9 8 7 6 5 5 4 4 3 3 1 4 4 3 5 3 5 6 6 5 6 5 5 5 4 4 4 2 1 0 1 2 3 5 5 3 3 1 2 1 0 1 1 1 2 1 0 2 3 4 1 1 3 3 3 3 2 3 5 8 6 7 6 6 6 5 4 3 4 5 5 4 9 8 8 7 7 7 11
9 10 10 10 9 10 9 9 7 6 6 4 4 3 3 4 2 4 4 4 5 4 4 5 4 3 3 3 3 3 2 2 2 1 2 0 3 3 4 3 5 3 2 2 4 1 1 0 0 0 1 3 1 2 3 4 0 2 2 2 0 2 2 2 3 6 9 6 5 3 5 7 5 4 1 2 3 4 7 8 7 8 8 7 8
9 9 9 10 10 9 8 8 7 6 5 5 4 3 3 3 2 2 2 6 6 6 5 4 3 4 1 3 2 2 2 4 3 1 0 6 3 3 3 4 4 4 3 2 3 2 1 1 1 0 0 1 1 1 3 0 1 2 3 2 0 0 1 2 2 4 6 7 5 3 1 2 7 8 8 5 3 3 3 5 8 8 8 8 8
8 8 9 10 9 8 8 8 7 5 5 4 4 5 5 5 6 6 7 6 5 5 4 4 3 3 4 4 3 2 2 3 3 4 6 3 6 5 5 5 3 2 4 4 3 3 3 3 3 2 1 2 1 1 1 3 1 4 2 2 1 1 1 1 0 1 2 3 3 2 3 1 2 3 2 5 8 8 8 5 2 3 5 5 6
8 8 9 9 7 9 9 9 7 6 5 5 6 6 6 5 6 7 6 6 4 4 3 3 3 3 3 3 2 2 3 4 3 4 5 7 5 4 2 1 4 3 5 1 3 3 5 2 3 3 2 2 3 1 2 3 2 1 1 2 1 1 1 1 0 2 0 3 2 0 1 2 3 2 2 2 3 3 4 5 6 5 5 4 2
8 7 7 8 8 9 9 8 7 6 7 6 8 6 5 6 5 6 5 4 4 4 4 3 2 2 4 2 3 4 4 4 6 6 5 3 2 4 5 4 5 5 5 5 6 5 6 4 2 2 4 2 4 3 2 4 4 5 1 1 1 0 1 1 0 1 0 0 2 3 3 2 0 0 2 2 2 3 2 3 4 4 4 3 4
7 6 7 7 8 9 9 8 7 7 7 7 8 6 6 5 5 5 4 4 5 3 4 3 5 4 3 5 3 3 4 5 4 4 3 5 4 3 3 2 2 1 3 4 5 6 5 4 4 3 3 4 2 3 3 3 2 1 2 3 4 3 1 1 1 1 1 2 1 1 2 3 3 2 2 2 2 2 2 1 2 1 3 3 4
6 8 7 7 8 10 10 9 7 8 7 7 8 6 6 6 5 4 4 5 4 6 4 4 4 4 3 3 4 2 3 3 3 3 4 5 3 3 3 4 4 2 5 5 5 6 4 4 6 6 5 5 4 2 2 5 5 2 4 4 3 2 3 3 2 2 1 1 1 0 2 1 1 2 2 2 2 2 2 3 2 2 4 3 2
7 8 9 7 8 9 10 8 8 8 8 9 8 6 5 7 5 3 4 4 7 6 4 4 4 3 3 2 3 4 3 4 4 4 5 3 3 3 3 4 5 6 5 5 4 4 4 5 5 5 5 6 6 5 5 5 4 3 3 3 3 3 4 4 4 4 3 2 2 1 1 0 1 2 0 0 1 2 2 2 2 3 1 1 1
4 7 9 8 8 9 10 10 9 9 9 9 8 7 7 7 5 4 4 5 6 5 4 5 5 3 2 2 3 3 5 3 3 3 3 4 3 3 3 3 3 3 3 3 4 4 4 3 3 4 5 4 4 4 5 5 5 4 4 2 0 3 2 1 0 1 1 0 0 2 2 2 3 2 3 3 3 2 2 2 2 3 3 2 3
10 10 9 10 10 10 12 10 10 9 10 10 9 9 7 7 6 5 5 7 7 5 6 5 5 4 4 3 2 3 4 5 4 2 4 3 3 3 3 3 2 3 4 4 4 3 2 2 3 4 4 4 3 3 3 3 3 4 4 5 4 3 3 2 3 1 1 1 1 2 3 3 4 2 4 5 5 5 4 4 4 4 4 3 4
Wind_Direction
121 126 126 123 121 121 121 123 120 114 112 112 111 114 115 118 121 122 122 121 121 121 121 120 121 119 113 109 103 98 96 91 97 113 110 108 103 99 98 99 98 100 101 98 98 95 92 88 87 88 86 84 82 79 78 79 74 77 81 81 80 84 83 79 79 89 92 89 87 90 87 88 93 82 60 55 56 53 49 64 68 68 62 65 71
129 124 126 125 121 121 123 123 123 116 113 114 113 116 116 119 120 124 123 121 121 121 121 121 121 117 113 109 104 102 98 95 100 117 116 110 108 103 102 106 108 104 104 103 101 97 94 90 88 85 86 87 85 81 83 84 81 83 84 85 89 89 84 85 94 96 99 97 93 89 86 81 74 66 61 56 54 60 57 60 70 76 74 64 62
125 124 126 125 120 120 122 123 122 117 117 116 118 118 120 119 122 122 124 123 122 121 121 123 121 119 114 111 109 104 101 100 96 115 120 113 112 109 108 111 112 109 104 103 101 97 94 92 89 87 87 88 86 86 91 88 87 87 87 85 82 84 91 93 92 103 107 110 108 99 91 78 64 62 71 64 59 63 61 60 62 65 66 68 63
125 125 125 124 121 123 123 121 120 120 118 118 121 120 121 121 122 122 122 122 123 120 120 121 122 119 117 115 114 111 105 101 98 103 122 123 111 107 108 112 111 106 105 102 99 99 96 93 93 94 93 90 83 84 94 92 91 89 89 88 88 90 97 101 110 111 120 127 125 124 103 90 74 71 73 68 63 63 71 71 69 67 69 72 69
125 127 126 129 123 126 126 125 125 124 123 122 123 126 123 125 124 121 123 125 120 121 122 121 121 121 122 122 120 116 111 108 105 100 103 111 112 116 109 101 100 100 104 103 99 100 97 93 92 95 95 90 84 88 91 96 91 89 89 89 92 97 89 103 113 126 146 156 161 123 99 93 88 74 74 73 69 68 74 72 76 76 73 70 67
128 129 132 131 128 128 126 128 127 126 126 126 127 128 128 128 126 126 125 123 122 123 123 123 122 124 126 128 124 121 116 115 115 111 99 91 95 113 113 103 102 105 100 106 106 104 99 97 93 92 92 87 85 88 94 96 96 90 92 91 93 86 89 92 116 168 151 202 220 269 111 100 97 82 81 81 80 73 70 72 74 79 79 77 72
128 132 133 132 132 131 128 126 126 127 126 127 126 128 131 129 128 126 124 123 123 124 125 125 125 127 128 127 127 120 118 117 117 114 107 98 95 91 102 104 112 113 110 111 107 103 92 89 95 94 89 89 85 89 90 92 91 89 88 90 84 57 74 254 270 195 222 189 236 225 129 103 95 97 91 87 80 74 66 80 73 68 73 77 79
129 135 135 133 131 132 127 125 125 125 128 127 128 130 130 132 129 127 124 121 124 125 125 125 126 126 126 125 125 123 120 120 120 118 117 117 110 87 76 98 133 130 138 128 116 97 104 102 99 97 93 90 90 88 92 88 88 90 88 86 75 339 272 269 257 242 242 235 236 227 121 100 94 91 86 73 70 79 72 73 79 83 80 83 79
135 134 133 130 129 132 127 126 124 125 127 127 129 131 132 131 130 129 128 125 124 124 125 125 125 124 123 124 124 125 127 123 117 120 124 126 127 119 122 222 172 134 119 96 81 48 99 106 108 100 95 92 90 90 87 93 93 93 91 87 101 277 253 265 277 280 260 244 246 95 102 103 97 93 90 81 78 66 94 93 88 64 62 69 75
130 133 130 129 135 129 127 127 124 124 125 126 131 135 132 130 132 130 129 124 124 123 123 124 124 122 121 122 122 123 120 119 118 113 111 108 109 125 147 160 103 111 109 98 74 49 110 103 94 97 99 95 94 91 87 85 91 94 98 106 229 257 285 292 297 301 270 286 84 68 82 88 87 88 90 77 79 78 73 68 65 80 77 78 80
130 128 128 127 134 131 130 127 126 125 125 128 134 136 133 129 129 128 125 126 124 124 123 122 123 124 120 119 121 120 117 115 114 113 108 105 102 103 109 102 100 101 104 93 75 83 94 95 98 103 101 104 106 104 98 95 96 98 102 139 228 276 293 297 295 264 270 195 102 99 95 96 92 93 96 92 87 77 74 74 82 79 74 74 83
129 123 123 124 131 132 129 128 126 127 131 134 136 136 131 128 127 126 127 126 124 123 122 123 123 124 123 121 117 116 118 116 112 113 110 108 104 103 103 103 106 105 108 96 88 104 108 104 106 113 112 111 110 107 110 113 110 118 137 197 244 275 274 278 282 282 273 84 76 89 95 96 100 101 92 92 100 89 82 89 93 88 97 99 86
126 121 119 124 130 132 130 128 129 131 132 134 135 134 135 131 126 126 125 122 122 122 124 122 122 121 122 122 120 120 121 118 118 116 113 114 112 110 109 111 113 111 110 105 105 115 114 115 116 118 118 117 113 115 120 125 134 138 173 205 236 254 275 293 299 284 269 108 107 100 93 96 103 111 111 107 105 106 100 99 92 100 99 96 95
124 121 124 127 129 133 130 131 131 132 132 130 130 134 134 128 128 125 119 121 122 124 123 123 122 120 120 121 121 123 121 121 124 122 121 117 118 118 119 121 122 124 119 112 121 121 120 121 121 123 126 125 121 128 129 137 142 158 189 225 251 274 296 296 271 270 251 126 108 103 110 110 114 115 113 128 110 112 114 96 98 91 89 88 91
124 128 130 127 132 137 136 132 132 132 131 128 127 131 125 120 121 119 120 123 125 124 125 124 122 126 125 123 122 124 125 124 127 131 127 124 121 124 125 127 125 124 123 119 128 127 123 120 125 128 128 129 132 133 132 122 135 165 250 259 265 288 296 294 307 301 101 84 96 107 104 106 111 107 115 121 130 102 104 116 92 96 89 86 85
127 130 127 131 135 137 140 137 127 126 125 124 127 128 119 120 123 122 120 121 120 121 121 123 127 128 129 123 123 122 126 127 123 125 128 128 127 130 130 133 135 132 125 128 129 131 127 124 130 134 138 135 136 125 103 91 81 238 259 277 282 285 290 291 294 301 79 94 91 105 105 111 118 121 119 122 122 122 113 111 117 105 102 100 95
129 130 133 137 140 144 142 144 132 122 115 118 123 122 116 115 115 110 115 113 119 118 122 127 130 133 127 125 121 121 127 128 125 126 130 136 140 135 138 139 141 139 134 135 135 137 136 135 141 142 147 144 143 126 117 112 71 302 280 270 279 284 271 284 298 301 74 118 111 102 109 113 114 112 119 122 127 136 129 130 114 107 107 102 99
133 136 139 140 146 149 142 135 133 130 127 114 108 108 108 109 107 111 111 113 119 121 120 122 135 128 116 113 115 119 117 113 131 126 130 134 132 143 140 143 141 140 142 141 142 144 144 145 149 152 153 152 148 145 140 140 144 298 287 275 280 276 268 272 269 292 111 70 99 108 110 124 121 118 124 134 133 136 137 111 113 116 109 110 108
136 135 140 146 150 147 142 134 138 131 126 126 133 114 112 115 113 114 118 124 124 125 123 131 117 121 99 84 102 114 129 150 127 113 116 127 139 139 140 142 144 144 146 146 149 151 153 152 157 163 163 160 160 166 164 164 180 197 281 282 280 282 294 287 261 247 113 89 87 106 114 126 125 125 135 142 137 143 130 131 125 119 117 109 108
130 129 143 139 146 147 146 142 143 134 133 133 130 135 123 118 117 116 124 130 130 125 136 131 113 108 101 125 126 136 136 156 135 130 149 125 139 161 131 144 151 150 153 152 151 156 157 161 162 168 173 168 169 176 188 203 197 212 223 265 279 293 291 253 250 250 101 107 108 108 130 122 125 127 132 139 142 131 141 134 134 125 119 114 105
119 128 139 143 147 149 150 149 148 132 135 130 139 134 130 116 108 105 103 119 136 140 136 122 113 106 101 135 160 197 166 151 158 166 145 158 131 103 145 148 150 155 154 162 162 163 168 167 168 172 174 176 172 187 207 210 211 205 205 243 267 285 268 272 276 194 108 116 120 126 132 132 129 133 137 142 137 145 143 141 140 129 122 116 113
125 139 141 145 148 148 147 149 138 119 122 122 122 135 142 145 137 127 112 109 118 129 135 126 119 87 107 189 208 178 259 212 175 165 142 139 115 136 141 160 163 159 166 166 167 170 174 171 174 178 178 179 187 198 217 223 215 211 204 203 241 260 261 263 280 45 107 114 116 132 133 136 135 131 139 138 139 145 158 147 141 139 128 121 112
144 148 150 146 143 145 147 131 104 124 147 150 160 137 146 137 142 146 134 137 166 142 93 70 89 123 172 215 233 141 204 206 181 176 161 141 131 148 160 173 181 176 171 168 169 175 177 175 180 186 194 190 196 228 233 201 203 217 202 186 215 238 256 280 322 360 110 112 119 136 135 135 137 140 140 145 149 152 159 152 150 142 138 125 110
154 153 147 147 145 141 139 118 128 151 149 135 123 110 146 134 94 122 135 147 148 153 96 66 1 205 176 204 223 213 200 221 204 184 158 144 129 154 174 185 190 183 172 165 175 182 186 183 183 190 196 218 231 230 235 212 187 188 195 201 207 235 199 229 281 92 118 114 125 137 136 136 135 149 145 149 152 152 155 155 159 137 152 138 137
142 143 145 142 140 135 129 125 128 137 129 129 136 169 152 149 136 107 164 174 109 29 32 55 248 212 205 202 202 228 193 169 163 149 158 153 157 174 189 192 188 181 165 190 178 182 186 190 183 194 213 223 236 239 232 202 183 181 196 210 211 200 146 205 261 77 116 120 129 136 139 137 141 151 153 155 154 153 157 168 154 150 144 143 140
141 142 130 131 133 136 128 126 134 137 138 144 148 137 145 150 135 149 156 130 105 90 223 198 233 244 191 192 193 215 94 54 135 194 157 167 184 187 199 199 179 210 174 213 184 166 190 200 181 188 217 231 232 242 230 258 185 180 197 210 180 128 180 178 217 101 117 124 137 139 135 137 145 152 158 156 156 161 163 160 165 155 153 160 156
166 133 151 144 139 137 132 127 125 128 138 158 132 131 131 103 115 141 147 116 125 137 135 242 224 225 207 209 178 176 166 148 193 164 184 181 195 272 126 54 65 331 217 246 218 175 189 213 184 194 208 226 229 222 229 273 215 166 211 245 156 159 185 194 172 126 125 127 142 139 138 141 147 158 157 158 159 166 160 170 159 167 170 173 167
158 127 129 140 172 135 135 125 131 135 145 147 147 134 124 143 135 114 79 144 144 135 164 179 213 239 234 214 195 162 172 172 168 177 171 20 17 207 187 116 152 247 254 262 311 260 196 218 169 212 236 239 233 232 237 259 313 352 336 280 161 180 167 184 163 147 126 130 145 145 142 146 156 163 159 159 168 167 166 172 170 166 174 185 187
115 136 137 155 144 145 117 141 139 141 145 140 149 130 129 118 123 146 149 152 110 111 118 155 159 186 250 215 180 160 174 111 210 87 78 104 188 252 267 117 138 221 260 277 310 300 253 214 338 303 223 250 259 209 203 199 270 219 230 293 295 195 159 141 188 137 129 135 145 155 149 149 160 168 168 165 167 170 172 178 171 171 170 182 190
134 126 145 163 147 136 146 141 142 149 152 151 130 121 114 101 110 162 161 140 151 156 153 177 168 164 187 228 185 143 192 185 192 121 118 135 197 212 188 129 164 59 17 1 357 319 305 42 46 283 346 319 296 243 202 194 213 209 191 233 292 291 190 154 183 174 129 143 145 155 160 156 159 167 175 175 168 173 174 175 181 172 171 175 183
137 142 135 150 103 145 120 148 131 147 162 150 124 131 148 146 138 209 62 76 43 169 154 161 177 171 175 197 75 245 234 197 129 149 149 159 175 226 311 123 280 54 61 352 353 321 303 28 23 33 321 271 280 336 310 237 234 208 171 180 248 251 264 161 162 184 157 147 146 158 166 165 163 168 165 179 174 173 175 174 185 172 171 175 181
143 137 126 106 126 120 104 84 96 89 192 139 150 157 164 158 160 157 158 140 153 221 164 119 191 201 165 168 155 208 215 176 146 107 158 154 175 172 213 226 178 99 91 311 308 341 344 336 168 229 212 17 298 299 294 252 313 282 202 178 196 229 220 166 178 186 178 140 150 159 162 173 173 168 171 171 167 176 175 178 180 175 174 180 180
139 141 113 122 96 84 95 105 99 120 76 77 93 120 159 155 155 141 161 145 136 69 4 50 225 189 179 183 162 181 202 186 170 185 171 192 164 145 170 190 79 81 74 46 2 11 328 285 288 348 250 195 250 284 326 349 313 286 304 217 181 222 196 155 207 225 182 142 155 157 167 173 177 178 173 178 175 177 183 179 180 180 179 184 187
145 114 121 113 89 87 92 101 114 97 84 86 35 84 43 94 135 137 125 118 106 123 331 358 281 257 230 197 186 186 197 147 127 244 169 293 75 104 35 347 45 95 111 130 184 192 221 261 256 86 290 269 179 277 335 350 312 308 284 281 286 232 212 178 185 244 207 175 159 159 164 169 169 173 181 179 179 182 187 191 182 185 181 188 192
129 123 127 113 105 105 102 94 104 92 91 87 68 73 47 34 61 85 122 159 135 170 160 197 278 277 146 309 248 279 171 210 146 61 271 126 114 76 47 335 360 14 87 174 234 329 314 280 271 258 273 265 242 175 202 303 312 305 304 296 296 320 318 273 170 192 206 205 148 151 163 163 163 166 177 176 186 183 189 193 196 182 192 191 194
126 130 124 125 115 112 109 106 98 101 84 89 78 72 82 78 98 105 115 151 143 146 152 159 162 167 108 263 254 209 252 190 157 169 213 176 147 111 108 134 122 317 237 183 161 168 235 250 259 220 252 258 241 178 148 128 279 288 298 337 348 344 325 320 329 219 204 171 219 203 154 159 159 175 175 174 177 189 191 193 196 188 194 200 193
131 135 135 126 124 119 117 120 111 109 110 98 102 104 110 101 92 140 156 157 145 144 146 139 152 157 161 191 147 209 200 196 157 72 312 7 22 68 148 174 129 249 251 228 189 190 175 228 232 247 257 330 327 333 134 81 77 304 315 0 350 340 335 325 334 355 348 278 194 202 177 155 168 171 173 172 176 182 193 193 197 194 200 207 196
136 136 136 130 130 126 124 119 119 111 106 104 102 108 107 129 111 76 44 63 18 40 55 139 151 147 145 120 198 155 290 107 146 129 182 182 131 142 139 178 192 195 211 167 231 207 177 227 233 204 43 37 294 18 34 358 12 333 339 350 345 335 328 339 348 345 334 329 300 218 179 194 162 165 175 171 175 181 183 194 195 198 198 206 204
142 137 137 130 130 128 124 127 125 115 110 103 85 84 94 76 116 131 143 168 91 51 35 45 46 54 98 147 23 32 301 43 119 154 169 169 159 162 170 185 175 175 164 151 203 230 163 240 230 201 108 135 177 66 92 167 113 140 12 342 344 0 348 3 349 338 336 324 324 334 293 196 192 175 174 173 175 173 176 183 190 191 205 203 205
142 142 140 133 133 129 134 133 128 124 116 121 140 140 142 138 130 146 102 69 70 83 130 112 99 68 77 61 79 259 32 26 19 24 25 26 52 153 168 164 168 150 143 141 87 255 282 203 236 261 240 100 101 97 108 119 102 74 78 336 329 27 311 330 338 319 324 318 324 325 314 298 211 195 177 176 182 168 174 173 181 189 198 203 205
144 146 144 138 142 141 141 142 135 132 145 151 157 154 142 114 87 89 103 119 102 96 55 49 57 49 24 41 34 46 49 43 356 7 87 187 252 94 122 141 155 131 124 153 217 221 317 48 296 120 250 227 49 107 72 63 47 108 155 161 229 266 312 20 301 309 310 297 308 314 302 305 312 231 187 178 199 171 160 165 177 184 197 189 201
154 154 152 144 147 143 147 139 137 147 152 159 144 127 152 123 153 134 149 132 147 144 103 86 70 66 60 57 71 49 120 82 80 33 315 65 20 32 79 68 84 111 131 134 114 274 84 219 63 302 222 238 158 113 134 112 84 121 74 63 267 179 187 251 273 283 297 296 305 323 339 339 322 318 291 204 226 205 165 167 174 184 196 196 188
155 156 152 148 146 146 144 142 145 152 157 141 130 122 68 109 168 131 117 79 53 59 81 90 106 112 118 112 69 59 4 129 161 176 112 37 28 50 39 78 109 125 119 114 134 111 99 148 210 94 71 196 100 118 127 111 92 95 99 80 207 336 150 203 218 243 255 272 300 323 10 20 16 11 357 325 259 227 223 179 177 192 190 203 175
162 163 156 152 148 147 147 146 151 152 143 135 125 96 89 70 63 58 64 83 86 79 85 82 114 110 71 40 67 10 8 31 13 69 60 47 25 26 35 21 27 46 124 144 151 149 167 167 130 169 188 148 70 68 122 128 126 130 136 172 157 92 316 167 138 322 268 277 310 337 345 14 21 4 1 23 359 360 353 315 260 198 205 201 158
178 170 163 157 155 150 149 148 153 144 139 129 110 105 102 94 76 77 77 90 93 107 118 120 95 95 112 90 66 50 61 45 33 45 70 59 37 5 19 73 35 16 2 83 138 144 167 160 142 132 114 72 124 112 77 110 175 25 87 97 97 152 207 167 223 229 43 286 284 169 145 351 20 2 343 45 48 31 3 7 13 27 14 4 120
186 176 171 157 158 148 150 146 152 141 141 132 118 121 128 118 119 115 121 118 134 152 131 128 135 95 85 137 73 62 54 32 53 44 45 76 80 28 12 28 54 25 11 19 21 354 47 46 118 114 107 125 120 109 97 43 67 74 28 57 65 77 9 349 12 244 142 301 295 338 28 69 75 305 317 18 40 54 11 9 9 12 17 12 23
187 178 173 163 160 149 150 150 153 142 142 136 130 137 134 129 139 137 147 153 148 131 103 93 93 104 105 75 85 54 75 70 61 72 59 58 54 42 11 27 108 80 58 32 31 28 29 24 19 32 65 142 130 98 113 129 125 101 129 121 146 169 240 335 178 69 316 302 311 333 22 7 360 1 13 357 360 58 39 341 344 27 35 8 10
181 176 179 166 167 152 155 154 153 143 145 142 142 146 142 140 153 161 167 153 137 119 119 102 97 101 98 116 111 136 102 97 94 87 88 64 45 47 31 5 6 81 85 55 44 28 33 26 15 13 26 51 29 78 160 165 155 165 169 163 182 149 150 222 58 109 155 277 274 144 139 79 338 18 3 357 350 18 4 351 336 61 32 359 12
181 182 178 171 168 156 156 154 155 143 150 147 148 152 145 146 155 159 171 132 116 121 122 119 113 96 107 138 107 97 63 56 77 69 73 84 74 56 40 29 23 17 58 65 44 54 52 26 22 20 33 25 15 19 23 34 38 78 154 165 182 181 164 182 209 173 182 183 255 286 295 298 210 210 249 215 4 325 327 344 355 335 293 228 229
255 186 178 173 170 160 158 160 155 150 151 151 153 156 150 149 160 157 171 130 128 136 135 125 116 145 130 104 99 104 107 115 101 102 111 99 106 97 76 48 32 48 76 86 108 70 36 49 48 37 18 51 53 28 30 19 37 20 353 6 7 151 161 172 221 235 192 239 156 278 242 222 261 243 194 204 201 196 238 250 247 255 259 241 234
215 204 179 178 173 169 160 167 158 151 155 155 159 162 152 158 167 162 171 140 146 147 129 134 130 154 142 139 163 126 122 104 95 91 95 98 88 79 77 97 72 32 42 56 62 76 100 109 87 55 41 51 36 52 44 27 37 39 15 20 29 21 32 5 47 3 358 334 285 272 275 212 226 257 225 198 201 207 213 217 227 229 216 228 251